Appleton, MN

4:28 PM CDT on July 20, 2017 (GMT -0500)
Appleton Municipal

Weather History for KAQP - July, 2012

Change the Weather History Date:

Thursday, July 26, 2012

  Actual Average Record
Temperature  
Mean Temperature 71 °F -  
Max Temperature 82 °F 79 °F 87 °F (2002)
Min Temperature 60 °F 59 °F 48 °F (2004)
Cooling Degree Days 6    
Growing Degree Days 21 (Base 50)    
Moisture  
Dew Point 58 °F    
Average Humidity 67    
Maximum Humidity 94    
Minimum Humidity 37    
Precipitation  
Precipitation 0.00 in - - ()
Sea Level Pressure  
Sea Level Pressure 29.80 in    
Wind  
Wind Speed 8 mph (WNW)    
Max Wind Speed 18 mph    
Max Gust Speed 23 mph    
Visibility 10 miles    
Events Rain    
Averages and records for this station are not official NWS values.
T = Trace of Precipitation, MM = Missing Value Source: NWS Daily Summary

Daily Weather History Graph

Daily Weather History Graph

Search for Another Location

Airport or City:

Trip Planner

Search our weather history database for the weather conditions in past years. The results will help you decide how hot, cold, wet, or windy it might be!

Date:

Astronomy

Jul. 26, 2012 Rise Set
Actual Time 6:02 AM CDT 8:57 PM CDT
Civil Twilight 5:27 AM CDT 9:32 PM CDT
Nautical Twilight 4:43 AM CDT 10:16 PM CDT
Astronomical Twilight 3:50 AM CDT 11:08 PM CDT
Moon 2:44 PM CDT (7/26) No Moon Set
Length of Visible Light 16h 04m
Length of Day
14h 55m
First Quarter, 54% of the Moon is Illuminated
Jul 26
First Quarter
Aug 1
Full
Aug 9
Last Quarter
Aug 17
New
Aug 24
First Quarter

Hourly Weather History & Observations

Time (CDT) Temp. Heat Index Dew Point Humidity Pressure Visibility Wind Dir Wind Speed Gust Speed Precip Events Conditions
12:15 AM 73.4 °F - 60.8 °F 65% 29.73 in 10.0 mi North 10.4 mph - N/A   Clear
12:35 AM 71.6 °F - 60.8 °F 69% 29.73 in 10.0 mi North 10.4 mph - N/A   Clear
12:54 AM 69.8 °F - 59.0 °F 68% 29.74 in 10.0 mi North 5.8 mph - N/A   Clear
1:15 AM 66.2 °F - 60.8 °F 83% 29.74 in 10.0 mi NNW 3.5 mph - N/A   Clear
1:34 AM 64.4 °F - 60.8 °F 88% 29.75 in 10.0 mi NW 3.5 mph - N/A   Clear
1:54 AM 64.4 °F - 60.8 °F 88% 29.75 in 10.0 mi Calm Calm - N/A   Clear
2:15 AM 62.6 °F - 60.8 °F 94% 29.75 in 10.0 mi Calm Calm - N/A   Clear
2:35 AM 62.6 °F - 59.0 °F 88% 29.76 in 10.0 mi West 3.5 mph - N/A   Clear
2:55 AM 62.6 °F - 60.8 °F 94% 29.76 in 10.0 mi WSW 3.5 mph - N/A   Clear
3:15 AM 62.6 °F - 59.0 °F 88% 29.76 in 10.0 mi WSW 4.6 mph - N/A   Clear
3:34 AM 62.6 °F - 59.0 °F 88% 29.76 in 10.0 mi WSW 5.8 mph - N/A   Clear
3:54 AM 62.6 °F - 59.0 °F 88% 29.76 in 10.0 mi South 4.6 mph - N/A   Clear
4:15 AM 62.6 °F - 60.8 °F 94% 29.75 in 10.0 mi SW 5.8 mph - N/A   Clear
4:35 AM 62.6 °F - 60.8 °F 94% 29.75 in 10.0 mi SW 6.9 mph - N/A   Clear
4:54 AM 60.8 °F - 59.0 °F 94% 29.75 in 10.0 mi SW 5.8 mph - N/A   Clear
5:15 AM 60.8 °F - 57.2 °F 88% 29.75 in 10.0 mi SW 4.6 mph - N/A   Clear
5:35 AM 60.8 °F - 57.2 °F 88% 29.75 in 10.0 mi SW 5.8 mph - N/A   Clear
5:55 AM 60.8 °F - 57.2 °F 88% 29.76 in 10.0 mi WSW 3.5 mph - N/A   Clear
6:14 AM 60.8 °F - 57.2 °F 88% 29.76 in 10.0 mi WSW 5.8 mph - N/A   Clear
6:35 AM 60.8 °F - 57.2 °F 88% 29.77 in 10.0 mi West 3.5 mph - N/A   Clear
6:54 AM 60.8 °F - 57.2 °F 88% 29.77 in 10.0 mi Calm Calm - N/A   Clear
7:14 AM 62.6 °F - 57.2 °F 82% 29.78 in 10.0 mi West 5.8 mph - N/A   Clear
7:35 AM 64.4 °F - 57.2 °F 77% 29.78 in 10.0 mi West 4.6 mph - N/A   Clear
8:14 AM 66.2 °F - 57.2 °F 73% 29.79 in 10.0 mi WSW 6.9 mph - N/A   Scattered Clouds
8:34 AM 68.0 °F - 57.2 °F 68% 29.79 in 10.0 mi West 6.9 mph - N/A   Clear
8:56 AM 69.8 °F - 57.2 °F 64% 29.79 in 10.0 mi West 9.2 mph - N/A   Clear
9:15 AM 71.6 °F - 59.0 °F 64% 29.79 in 10.0 mi West 9.2 mph - N/A   Clear
9:34 AM 73.4 °F - 59.0 °F 61% 29.79 in 10.0 mi West 9.2 mph - N/A   Clear
9:55 AM 77.0 °F - 60.8 °F 57% 29.79 in 10.0 mi West 10.4 mph - N/A   Clear
10:14 AM 78.8 °F - 55.4 °F 44% 29.79 in 10.0 mi West 15.0 mph 18.4 mph N/A   Clear
10:34 AM 80.6 °F 80.3 °F 53.6 °F 39% 29.79 in 10.0 mi WNW 13.8 mph - N/A   Clear
10:53 AM 80.6 °F 80.3 °F 53.6 °F 39% 29.79 in 10.0 mi WNW 12.7 mph - N/A   Clear
11:14 AM 80.6 °F 80.3 °F 53.6 °F 39% 29.79 in 10.0 mi NW 12.7 mph 19.6 mph N/A   Scattered Clouds
11:34 AM 82.4 °F 81.4 °F 53.6 °F 37% 29.79 in 10.0 mi NW 15.0 mph - N/A   Scattered Clouds
11:53 AM 82.4 °F 81.4 °F 53.6 °F 37% 29.80 in 10.0 mi NW 15.0 mph 19.6 mph N/A   Scattered Clouds
12:13 PM 80.6 °F 80.3 °F 53.6 °F 39% 29.79 in 10.0 mi NW 15.0 mph 18.4 mph N/A   Scattered Clouds
12:33 PM 80.6 °F 80.3 °F 53.6 °F 39% 29.79 in 10.0 mi WNW 18.4 mph 23.0 mph N/A   Scattered Clouds
12:54 PM 82.4 °F 81.4 °F 53.6 °F 37% 29.79 in 10.0 mi NW 13.8 mph - N/A   Clear
1:13 PM 80.6 °F 80.5 °F 55.4 °F 42% 29.79 in 10.0 mi NW 15.0 mph - N/A   Scattered Clouds
1:33 PM 78.8 °F - 55.4 °F 44% 29.79 in 10.0 mi NW 11.5 mph 16.1 mph N/A   Mostly Cloudy
1:53 PM 78.8 °F - 57.2 °F 47% 29.79 in 10.0 mi NW 10.4 mph - N/A   Mostly Cloudy
2:14 PM 75.2 °F - 57.2 °F 53% 29.79 in 10.0 mi NNW 10.4 mph - N/A   Mostly Cloudy
2:33 PM 69.8 °F - 62.6 °F 78% 29.81 in 10.0 mi North 16.1 mph - N/A Rain Light Rain
2:53 PM 73.4 °F - 62.6 °F 69% 29.81 in 10.0 mi NNW 9.2 mph - N/A   Scattered Clouds
3:16 PM 73.4 °F - 60.8 °F 65% 29.81 in 10.0 mi NW 15.0 mph - N/A   Mostly Cloudy
3:33 PM 75.2 °F - 60.8 °F 61% 29.81 in 10.0 mi NW 11.5 mph - N/A   Scattered Clouds
3:53 PM 77.0 °F - 59.0 °F 54% 29.82 in 10.0 mi NW 16.1 mph - N/A   Scattered Clouds
4:14 PM 75.2 °F - 59.0 °F 57% 29.81 in 10.0 mi NW 12.7 mph - N/A   Mostly Cloudy
4:34 PM 78.8 °F - 55.4 °F 44% 29.81 in 10.0 mi NW 13.8 mph - N/A   Scattered Clouds
4:53 PM 77.0 °F - 57.2 °F 50% 29.81 in 10.0 mi NW 13.8 mph - N/A   Scattered Clouds
5:13 PM 78.8 °F - 57.2 °F 47% 29.81 in 10.0 mi NW 15.0 mph 20.7 mph N/A   Scattered Clouds
5:33 PM 77.0 °F - 57.2 °F 50% 29.81 in 10.0 mi NW 12.7 mph 21.9 mph N/A   Scattered Clouds
6:13 PM 75.2 °F - 55.4 °F 50% 29.81 in 10.0 mi NW 13.8 mph 21.9 mph N/A   Scattered Clouds
6:33 PM 75.2 °F - 55.4 °F 50% 29.81 in 10.0 mi NW 11.5 mph - N/A   Scattered Clouds
6:54 PM 73.4 °F - 55.4 °F 53% 29.82 in 10.0 mi NW 12.7 mph 17.3 mph N/A   Scattered Clouds
7:13 PM 75.2 °F - 57.2 °F 53% 29.82 in 10.0 mi NW 12.7 mph 19.6 mph N/A   Scattered Clouds
7:34 PM 73.4 °F - 55.4 °F 53% 29.83 in 10.0 mi NW 13.8 mph - N/A   Scattered Clouds
8:14 PM 73.4 °F - 57.2 °F 57% 29.83 in 10.0 mi NW 15.0 mph 18.4 mph N/A   Overcast
8:33 PM 71.6 °F - 59.0 °F 64% 29.84 in 10.0 mi WNW 10.4 mph - N/A   Mostly Cloudy
8:53 PM 71.6 °F - 59.0 °F 64% 29.85 in 10.0 mi NW 9.2 mph - N/A   Overcast
9:13 PM 71.6 °F - 59.0 °F 64% 29.85 in 10.0 mi NW 11.5 mph - N/A   Overcast
9:34 PM 69.8 °F - 59.0 °F 68% 29.86 in 10.0 mi NW 9.2 mph - N/A   Mostly Cloudy
9:54 PM 69.8 °F - 59.0 °F 68% 29.87 in 10.0 mi NW 11.5 mph - N/A   Scattered Clouds
10:13 PM 68.0 °F - 60.8 °F 78% 29.87 in 10.0 mi NNW 6.9 mph - N/A   Scattered Clouds
10:33 PM 66.2 °F - 60.8 °F 83% 29.88 in 10.0 mi NW 5.8 mph - N/A   Scattered Clouds
10:53 PM 64.4 °F - 60.8 °F 88% 29.89 in 10.0 mi NW 10.4 mph - N/A   Scattered Clouds
11:13 PM 66.2 °F - 60.8 °F 83% 29.89 in 10.0 mi NNW 11.5 mph 16.1 mph N/A   Clear
11:35 PM 64.4 °F - 60.8 °F 88% 29.90 in 10.0 mi NNW 10.4 mph - N/A   Clear
11:53 PM 64.4 °F - 60.8 °F 88% 29.90 in 10.0 mi NW 9.2 mph - N/A   Clear